Location: Campolattaro
(41.2833°N, 14.7333°E)
Time: 00:26:03
(UTC+00:00)

Meteor 2-4 Rocket - Pass Details

Date: 19 May 2025
Orbit: 798 x 906 km, 81.2° (Epoch: 22 June)

Event Time Altitude Azimuth Distance (km) Brightness Sun altitude
Exits shadow 22:30:51 77° 277° (W) 888 3.7 -28.4°
Maximum altitude 22:30:53 77° 280° (W) 888 3.7 -28.4°
Drops below altitude 10° 22:36:41 10° 7° (N) 2,548 7.1 -28.5°
Sets 22:39:11 0° 9° (N) 3,504 8.1 -28.6°
